Theta_e
347 347 348 348 350 350 352 352 350 351 352 352 353 353 353 354 354 354 354 354 354 354 354 355 355 355 355 355 355 355 356 356 356 356 353 347 342 340 338 337 337 337 336 336 338 339 339 337 335 336 338 337 335 334 333 333 334 335 336 336 336 336 335
347 348 349 349 350 351 352 351 350 351 352 352 353 353 354 354 355 355 355 355 355 355 355 355 355 355 355 355 355 356 356 356 356 355 350 344 340 339 337 336 336 335 335 337 338 339 338 337 336 336 337 335 333 333 333 333 333 334 335 335 335 335 334
346 348 349 349 351 351 352 351 350 352 352 352 353 353 355 355 355 356 356 356 356 356 356 355 356 355 355 356 356 356 357 357 355 352 346 340 338 337 336 336 334 332 335 338 339 339 337 335 335 335 335 334 333 333 333 334 334 334 335 335 335 335 335
346 348 348 349 351 351 352 351 350 351 352 352 353 353 354 355 356 357 356 357 357 356 356 356 355 356 355 356 356 357 357 356 354 350 344 339 336 334 335 334 333 334 337 339 339 338 335 333 334 335 335 334 334 333 333 333 333 334 335 335 335 335 335
345 347 348 349 350 350 352 351 350 351 352 352 353 353 354 355 356 357 356 357 357 356 357 356 355 355 355 356 356 356 357 355 353 349 343 338 334 333 332 333 334 336 337 338 339 337 333 332 335 336 335 335 335 334 333 333 333 333 334 334 334 335 335
344 345 348 348 349 350 351 350 350 350 351 352 353 352 353 354 355 356 356 357 357 356 357 356 355 355 354 354 355 355 356 354 351 346 340 337 335 332 332 334 336 336 336 337 338 336 333 333 335 335 335 335 335 334 333 332 332 332 333 333 333 334 334
343 344 346 347 348 349 349 348 349 350 351 351 352 352 353 354 355 356 357 356 357 356 356 356 355 354 354 353 353 354 354 352 347 342 339 336 334 333 334 337 336 334 335 336 336 335 334 334 334 334 335 335 334 334 333 332 332 332 332 332 332 332 332
343 345 344 346 347 346 348 348 347 349 350 350 351 352 353 354 355 356 356 357 357 356 356 356 354 353 352 352 352 353 353 352 347 341 338 336 335 334 336 338 335 332 335 336 335 335 334 333 332 333 335 335 334 334 333 332 332 332 332 332 332 332 331
342 344 344 344 345 345 347 348 346 347 349 349 350 351 352 353 354 355 356 356 356 356 355 355 354 352 351 351 350 350 352 352 347 340 337 336 336 337 339 337 334 332 334 334 334 335 334 333 332 334 335 335 334 334 333 333 333 333 333 333 333 333 332
344 344 344 344 344 347 347 346 347 347 347 348 349 350 351 353 354 355 356 356 356 356 355 354 353 351 350 350 348 348 349 349 344 339 337 336 337 340 340 337 334 332 333 334 334 335 334 333 332 333 334 335 335 334 333 334 334 334 334 334 334 334 333
347 345 345 346 346 350 350 349 350 349 347 347 348 349 350 351 354 354 355 356 356 355 355 353 352 350 349 348 347 346 347 346 343 339 337 337 339 340 340 338 336 333 333 334 335 335 335 333 332 332 333 334 334 333 334 334 334 334 334 334 334 334 334
347 346 347 348 349 352 352 350 351 350 347 347 347 349 350 350 353 354 354 356 355 355 354 352 351 350 348 347 346 345 344 343 341 338 337 338 339 340 341 340 337 335 335 335 335 335 335 333 331 330 331 332 333 333 334 334 334 334 333 332 332 332 333
345 345 346 348 349 352 353 351 352 351 347 346 347 348 349 350 352 353 354 355 355 354 353 352 351 349 348 347 345 345 344 342 340 339 339 339 339 340 342 341 338 337 336 336 336 335 334 330 329 330 331 332 333 334 333 333 333 332 331 330 330 330 331
348 348 347 350 350 351 354 352 351 351 347 346 347 348 349 350 351 352 354 354 354 353 352 351 350 348 347 346 345 344 343 340 339 339 339 339 340 341 343 342 340 338 337 337 336 335 332 328 328 330 333 334 334 332 330 330 330 330 329 329 329 328 329
351 350 349 351 351 352 353 352 352 353 348 345 346 348 348 349 351 352 353 353 353 352 352 350 348 347 346 345 344 342 341 340 340 339 339 341 341 341 343 343 340 339 338 337 334 331 328 328 331 332 334 334 332 330 330 330 330 329 329 329 329 328 329
349 349 348 350 351 351 352 352 352 352 350 347 345 348 349 349 351 352 352 353 353 352 351 349 348 347 345 342 341 340 340 341 338 334 337 341 341 341 343 343 342 339 338 337 332 327 324 327 332 334 335 334 331 329 330 330 330 330 329 329 329 329 329
347 346 347 349 351 352 352 352 352 353 353 348 345 347 349 349 351 351 352 352 351 351 350 348 347 345 341 340 340 340 341 341 335 332 336 339 340 342 343 342 342 340 338 337 332 326 322 326 332 335 335 335 332 330 331 331 331 330 330 330 330 329 329
347 348 350 351 353 354 353 353 354 356 354 348 345 347 348 349 351 351 351 352 351 351 350 348 346 342 340 340 340 340 341 339 333 333 338 340 341 342 343 342 342 341 338 337 332 324 321 326 333 335 336 335 332 331 331 331 330 330 331 331 330 329 329
349 351 352 352 354 355 353 353 353 352 348 345 345 348 348 350 351 351 351 351 350 350 349 347 345 341 340 341 340 341 341 336 332 335 339 341 341 342 343 342 342 341 340 339 334 325 322 328 334 336 336 335 333 332 332 331 331 331 332 332 330 330 330
352 353 352 352 353 353 352 352 349 345 344 344 346 348 348 350 351 351 351 351 350 350 348 347 344 341 341 341 341 341 340 335 333 335 338 340 341 342 342 341 341 341 340 338 334 327 325 331 336 337 336 335 333 332 332 332 331 332 332 332 331 330 330
354 354 353 352 354 353 354 355 349 342 343 346 347 348 349 350 351 351 351 351 350 349 348 346 343 341 341 341 341 341 339 335 333 332 335 339 341 342 341 340 340 340 340 338 334 330 331 335 337 337 335 334 334 333 332 332 332 332 333 332 331 330 331
353 353 353 354 356 356 353 351 347 342 342 345 346 348 350 351 352 352 351 351 350 349 348 346 343 341 341 340 341 341 339 337 334 330 332 337 340 341 341 341 341 341 339 337 334 334 336 337 337 337 335 335 335 333 332 333 332 332 333 333 332 332 331
348 350 355 353 350 350 347 344 344 344 343 344 345 347 349 350 352 352 350 350 349 348 347 345 343 341 341 341 341 340 339 339 336 331 332 336 339 341 341 341 340 339 338 336 335 336 337 337 337 337 336 335 335 333 333 333 332 332 333 334 334 333 332
346 350 355 350 344 344 345 346 348 347 345 345 345 345 348 350 351 351 349 348 347 347 346 344 343 342 342 341 340 339 339 339 337 334 333 336 339 340 340 338 336 336 337 336 336 337 337 337 337 337 336 335 334 334 334 333 332 332 332 334 335 334 333
347 346 342 339 342 345 346 348 350 350 348 348 347 346 347 348 350 350 347 345 346 345 344 344 344 343 343 341 339 339 340 339 337 336 335 336 338 339 337 335 334 335 336 337 337 337 337 337 337 337 336 335 334 334 334 333 333 333 333 334 335 334 333
359 355 345 340 343 346 348 350 350 349 349 348 348 348 347 347 349 348 345 344 343 343 343 343 344 344 343 342 340 340 340 339 339 337 336 337 339 338 336 334 334 335 336 337 337 337 337 337 337 337 336 335 334 334 333 333 333 334 334 335 335 334 333
358 358 351 346 346 344 347 349 349 349 349 349 349 348 346 347 347 344 343 342 341 342 343 343 343 342 341 342 341 340 340 341 340 339 338 339 339 336 335 334 334 335 335 336 336 336 337 337 336 336 335 334 334 334 334 334 335 335 335 335 335 335 333
356 357 353 349 348 346 347 348 347 348 349 348 348 347 346 346 345 343 341 340 340 341 342 341 341 341 341 341 341 340 340 341 341 340 339 340 338 336 335 334 334 334 335 336 337 337 336 336 335 335 335 335 334 334 334 335 335 335 335 335 335 334 331
358 357 354 350 348 348 347 346 345 346 348 348 347 347 346 345 343 341 340 339 339 340 340 340 340 340 339 339 339 339 339 339 340 339 339 339 339 337 335 334 334 335 335 336 336 336 336 336 335 335 335 335 335 334 334 334 334 334 334 334 332 331 328
353 350 348 345 345 347 347 345 344 345 346 346 344 344 344 343 342 339 338 338 338 338 338 339 339 338 338 338 337 337 338 337 339 339 339 340 339 337 335 334 334 335 336 336 336 336 336 336 335 335 334 334 334 334 333 333 333 333 332 331 330 328 327
347 345 344 343 343 345 347 345 344 343 342 341 340 340 340 340 340 338 337 337 336 337 337 337 337 337 337 337 337 337 337 336 337 337 337 338 337 336 335 335 336 336 336 336 336 336 336 335 335 334 333 333 333 333 333 332 332 331 331 330 328 328 328
350 341 341 343 344 344 345 344 343 341 339 338 337 337 337 337 338 338 337 336 335 336 336 336 336 336 336 336 336 336 335 335 335 335 335 335 336 337 338 338 338 337 337 337 337 336 336 335 334 333 333 332 332 332 332 332 331 331 331 330 329 328 328
360 343 338 341 344 344 344 343 341 339 339 338 337 337 336 336 337 337 336 335 334 335 335 335 335 335 335 335 335 335 334 334 334 334 334 334 336 339 339 339 338 338 337 338 337 336 336 335 334 333 332 331 331 331 332 331 331 331 330 329 328 328 328
356 345 340 341 343 343 343 342 340 340 340 338 337 336 336 336 336 336 335 334 333 334 335 334 334 334 335 334 334 334 333 333 333 333 334 335 337 339 338 337 337 336 337 337 337 336 335 333 332 332 331 331 331 331 331 331 331 330 329 328 328 327 327
344 339 339 340 340 341 342 341 341 342 341 339 338 336 336 336 336 335 334 333 333 333 333 333 334 334 334 334 334 334 335 335 335 336 336 336 337 336 335 335 334 335 336 336 335 334 333 332 332 331 330 330 330 330 330 330 329 328 328 327 327 327 327
336 335 338 339 339 341 341 342 342 341 341 340 338 336 336 336 335 335 335 334 333 333 333 334 336 336 336 336 335 335 335 336 337 338 338 338 337 336 335 335 335 335 335 334 334 334 333 332 332 331 331 331 330 329 329 328 327 327 326 325 325 326 326
335 335 336 337 339 340 340 340 340 340 340 340 338 337 336 336 336 337 336 335 334 335 335 336 336 336 336 337 338 338 338 338 338 339 338 337 336 336 336 335 335 334 333 333 333 334 332 332 331 331 330 329 328 326 325 324 324 324 323 323 324 324 325
336 336 336 337 338 338 338 338 339 338 339 339 339 337 337 336 336 336 334 333 334 335 333 331 329 328 328 330 332 334 335 336 338 338 335 331 332 334 335 335 334 333 331 331 332 332 331 330 329 328 326 325 324 323 322 322 321 321 321 321 322 322 323
Wind_Speed
13 14 15 13 14 15 14 16 20 23 25 27 29 30 31 32 33 33 34 35 36 35 35 34 34 34 34 34 34 33 32 30 29 28 28 27 27 26 24 22 21 20 19 18 17 16 15 13 12 11 10 10 10 9 7 7 6 6 6 5 5 4 4
12 13 14 13 14 15 15 18 22 24 25 28 29 30 31 32 33 34 35 36 37 36 36 35 35 35 35 35 34 33 32 31 29 29 28 28 27 26 24 23 21 20 19 18 17 16 14 13 13 12 12 11 10 8 7 6 5 5 6 6 6 6 6
12 13 14 14 14 15 15 16 21 25 27 28 29 30 33 35 36 38 38 37 37 36 35 36 37 37 36 36 35 34 33 31 30 30 29 28 28 26 24 22 20 19 18 18 17 16 14 13 13 13 12 11 9 8 8 7 6 6 7 7 7 8 9
13 15 15 15 15 15 14 15 20 25 28 31 33 35 37 39 39 38 37 37 37 36 37 38 38 38 37 37 36 35 34 33 32 31 30 29 27 25 24 22 19 19 19 19 18 16 14 14 14 14 13 11 10 9 9 9 9 9 9 9 10 10 11
14 15 14 14 14 13 13 14 19 25 28 30 34 35 37 38 36 34 35 36 37 38 39 39 37 37 37 37 37 37 36 35 34 33 31 29 27 25 23 21 19 19 20 19 18 16 15 15 15 15 14 13 12 11 11 10 10 10 11 11 12 12 12
14 14 13 13 13 13 14 15 21 27 30 32 35 37 36 35 34 35 36 36 36 37 36 35 35 35 36 36 37 36 36 35 34 33 31 29 27 25 23 21 20 20 20 19 18 17 17 17 17 17 16 15 14 13 12 12 11 11 12 12 12 13 13
12 13 13 13 13 14 15 16 21 27 30 32 33 33 31 31 33 35 35 35 36 35 34 35 35 35 36 37 36 36 35 34 33 32 31 29 27 25 22 20 20 20 20 19 19 18 18 19 19 18 18 16 16 15 14 14 13 13 13 12 13 13 14
14 14 14 15 14 15 15 14 18 24 27 28 27 27 29 31 33 34 34 36 36 36 36 36 36 37 37 37 37 38 38 36 34 33 31 29 27 24 22 21 20 20 20 20 20 19 19 20 20 20 19 18 17 16 15 15 15 15 15 15 15 15 15
13 13 14 15 14 15 13 13 18 22 24 25 26 29 32 33 34 35 37 38 36 36 37 37 36 36 36 36 38 39 39 37 36 35 33 30 28 25 23 22 20 20 21 21 20 20 20 20 21 21 21 20 19 18 18 18 17 17 17 17 18 17 17
11 11 12 13 12 11 10 11 14 16 18 22 25 28 31 32 33 34 35 35 35 36 38 36 34 34 36 38 38 38 39 38 37 37 35 33 30 27 25 23 21 21 21 21 21 22 21 21 22 23 22 21 21 20 20 19 19 19 19 20 20 20 19
9 11 10 10 10 9 9 11 12 13 16 22 26 28 30 31 32 32 33 34 35 36 36 34 34 36 37 38 38 38 39 39 38 38 37 34 31 29 26 24 22 22 22 23 23 23 22 22 23 24 24 23 22 22 21 21 20 21 21 21 21 21 20
10 10 10 10 10 9 10 11 11 13 16 21 25 27 28 29 30 31 32 34 35 34 33 33 34 35 37 39 39 38 39 39 39 38 37 34 31 29 27 25 23 23 23 24 24 23 23 23 24 26 26 24 23 23 23 22 21 21 21 21 20 19 19
8 7 8 9 8 8 9 10 12 13 16 20 23 25 27 28 30 31 31 32 33 33 31 32 34 36 39 39 38 39 41 38 32 30 31 32 30 28 27 26 25 24 24 24 24 24 24 24 26 27 26 24 23 23 22 21 20 20 19 18 17 16 17
6 6 7 7 8 9 10 11 11 11 13 18 21 23 25 27 28 30 30 31 31 30 30 32 34 36 37 38 39 38 32 23 19 20 24 28 29 28 28 28 26 25 25 24 25 25 26 27 27 26 24 23 22 21 20 19 19 18 17 15 13 14 16
9 9 9 9 10 10 10 10 10 10 12 15 19 21 23 25 26 27 27 27 27 28 31 32 33 36 36 35 30 20 17 21 20 23 26 28 28 28 29 30 28 26 26 25 26 26 27 29 27 24 23 22 22 20 19 18 18 18 16 13 13 13 14
12 11 11 11 10 10 10 10 11 11 10 12 17 20 22 23 24 26 26 27 28 29 31 32 34 33 26 16 12 15 20 24 26 29 32 31 30 30 32 31 29 28 27 28 29 28 28 28 26 24 23 23 22 21 21 20 20 19 17 15 14 13 14
13 12 11 10 10 9 10 9 9 9 8 11 17 20 22 23 24 25 26 27 28 30 32 32 29 22 17 17 16 19 25 29 30 33 35 32 30 32 33 33 32 30 29 31 32 30 27 28 27 25 24 24 23 24 23 22 22 21 19 16 15 15 16
12 10 9 9 9 9 9 9 9 10 10 14 18 20 23 24 24 24 27 29 30 30 30 27 22 21 23 25 27 29 30 32 35 35 31 30 32 35 34 34 34 33 33 34 34 31 28 27 28 27 26 25 26 26 24 23 22 21 20 18 17 18 18
9 9 10 10 10 10 11 10 10 11 12 14 18 22 25 25 25 27 30 30 28 26 24 22 23 26 28 28 28 31 33 33 33 31 30 31 32 33 34 35 35 35 36 37 35 32 29 27 28 28 27 27 28 28 26 24 23 22 20 20 20 20 20
9 10 10 9 10 10 10 9 8 10 13 15 18 21 22 23 26 28 27 24 23 23 23 23 25 27 28 28 30 33 34 33 33 35 37 33 30 32 35 35 34 35 36 35 33 31 30 29 29 29 28 28 30 30 28 26 24 22 21 21 21 21 21
9 9 9 9 10 9 8 7 7 9 12 15 17 17 18 22 25 24 21 20 20 21 22 25 27 28 29 31 34 36 37 38 40 42 40 34 32 34 34 33 33 34 33 32 31 31 31 30 29 29 29 30 31 31 30 28 26 23 21 20 21 21 21
10 10 10 9 9 9 8 9 11 12 13 14 16 18 20 22 24 22 19 19 20 21 24 27 29 30 32 35 38 39 39 40 43 44 41 34 31 32 32 32 33 33 31 31 31 31 31 30 29 30 31 31 32 32 32 30 27 24 22 21 20 21 21
9 9 9 8 7 9 10 12 14 14 14 15 16 19 21 22 22 21 19 19 21 24 28 30 30 32 35 39 41 41 40 41 43 42 36 30 28 31 33 34 33 32 30 30 30 31 31 30 30 30 31 31 32 33 33 31 28 25 23 22 22 22 22
4 4 4 5 5 6 8 10 12 12 13 14 15 17 19 20 21 20 19 21 24 27 30 31 32 36 39 41 40 39 38 39 38 35 30 28 30 33 35 34 32 30 29 29 30 31 30 30 29 29 30 30 30 31 32 31 28 25 24 23 23 23 23
6 6 8 9 9 8 8 10 11 11 12 13 13 15 17 19 20 20 21 22 25 28 29 31 35 39 39 36 34 34 35 35 35 35 35 35 36 35 35 34 31 28 28 29 30 30 30 29 28 28 30 30 29 29 30 30 29 26 24 25 24 24 24
7 7 8 10 12 14 13 11 11 11 11 12 12 13 15 18 20 20 21 22 25 26 29 32 36 36 33 29 30 33 34 36 39 40 39 38 36 34 34 33 30 27 28 29 30 29 28 26 25 27 28 28 28 28 27 27 27 24 24 24 24 24 24
9 9 10 11 13 15 13 11 9 9 9 9 10 12 14 17 18 18 19 21 23 26 28 30 31 30 27 27 30 32 34 37 41 40 38 35 32 33 36 35 30 28 29 29 27 26 24 24 24 25 26 26 26 25 24 23 23 22 23 23 23 24 25
9 11 12 13 14 14 14 12 9 8 7 7 9 10 12 15 16 17 18 20 22 23 24 24 26 28 28 28 29 30 32 34 35 34 32 31 30 33 36 34 29 28 28 26 24 22 22 22 22 23 24 24 23 23 22 21 21 21 22 22 21 22 22
8 8 9 12 13 12 13 12 9 7 7 7 8 9 11 14 15 15 16 17 17 18 19 21 24 27 28 27 27 28 30 30 30 29 28 30 32 34 35 32 29 28 26 24 22 21 21 21 20 21 22 22 21 20 19 19 19 19 19 20 18 17 17
8 7 8 11 11 10 11 12 9 6 5 6 7 9 12 14 13 12 13 13 13 15 17 20 24 25 25 25 25 26 27 27 27 28 29 30 32 32 32 31 29 27 25 22 20 19 19 19 17 17 17 18 18 19 18 17 16 16 15 15 15 15 15
8 8 9 11 10 8 8 9 8 6 5 5 7 9 11 12 11 11 12 12 13 15 19 21 23 24 24 23 23 24 25 24 25 26 28 28 27 27 29 30 28 25 23 20 18 18 17 16 14 13 13 14 16 17 17 16 15 14 13 13 14 15 16
8 9 10 10 9 8 7 7 8 7 6 6 7 9 9 10 10 10 11 12 13 16 19 22 23 23 24 23 23 23 22 22 22 22 23 22 22 23 25 27 26 24 21 18 16 15 14 12 11 11 11 13 15 17 17 16 15 14 13 12 13 16 17
6 7 8 7 6 4 4 5 6 7 7 7 7 7 7 7 7 9 11 13 14 17 19 21 22 23 23 23 21 20 20 21 21 21 20 18 18 20 22 23 23 21 18 14 12 11 11 11 11 10 11 13 15 15 16 16 15 14 13 12 12 14 15
4 5 7 6 4 5 6 6 6 6 6 5 6 6 6 6 7 9 11 13 14 17 20 21 22 22 21 20 19 18 18 19 19 19 17 16 15 17 17 18 18 16 12 10 9 9 9 9 9 9 10 11 12 13 15 16 15 13 11 10 10 11 11
4 5 7 8 7 7 7 5 3 4 3 3 5 7 7 8 9 10 11 13 15 18 20 19 19 18 17 16 15 14 14 14 13 12 11 11 11 12 12 11 11 10 8 7 8 8 7 7 8 8 8 9 10 11 13 15 14 12 11 11 11 10 8
3 4 6 6 5 4 3 2 2 4 5 5 6 8 8 9 11 11 11 12 15 16 16 15 12 11 10 11 10 10 10 10 9 9 9 9 9 10 9 8 7 7 7 7 7 7 7 7 7 8 9 9 9 10 11 13 13 12 12 12 11 9 7
3 3 5 5 6 4 2 2 5 6 6 6 7 8 9 10 12 13 12 12 12 12 13 13 12 11 9 8 7 7 9 9 8 8 8 8 8 10 11 9 7 6 6 6 6 6 6 7 7 8 8 8 8 9 10 10 11 10 10 9 8 6 5
9 9 9 8 6 3 1 4 6 7 8 9 10 10 11 11 12 13 13 13 14 15 16 18 18 17 14 11 6 4 6 7 7 8 9 10 12 12 11 9 7 6 5 5 6 6 7 6 6 5 5 5 6 7 8 8 8 8 7 6 5 4 4
Wind_Direction
192 196 195 195 197 196 195 192 190 192 193 195 198 199 199 200 200 200 202 205 207 209 209 210 210 210 211 213 215 216 217 219 220 221 220 219 219 218 217 217 217 218 218 219 221 222 228 233 228 224 229 244 255 250 242 240 236 232 233 239 245 248 253
192 197 196 196 198 198 198 194 191 191 193 196 199 199 200 201 201 202 203 205 207 209 209 209 209 210 211 213 214 215 217 219 219 219 219 218 217 218 219 219 219 221 222 222 223 226 231 233 229 229 235 245 248 237 231 233 232 229 226 233 243 247 255
191 196 196 197 199 198 197 192 192 194 194 195 197 198 201 203 203 204 204 205 206 207 208 209 210 210 210 212 213 214 216 217 217 217 217 216 215 215 217 219 221 224 224 223 224 228 232 231 228 226 229 237 239 233 232 230 231 230 226 237 249 254 259
191 195 196 197 199 198 196 191 193 195 196 197 198 199 202 204 205 205 205 205 205 205 207 209 209 209 210 210 211 213 214 215 216 216 216 216 215 215 214 217 221 224 224 223 224 229 231 225 220 221 224 232 237 234 233 232 234 235 234 242 251 255 260
192 192 194 196 197 197 196 195 196 196 197 199 199 203 205 205 205 206 207 207 206 207 209 210 209 208 209 210 210 212 214 215 216 215 215 215 214 214 214 217 221 222 223 223 224 227 225 219 219 223 226 232 236 236 236 238 239 240 242 246 251 256 260
189 190 193 193 194 197 196 197 198 197 197 199 200 203 205 204 203 205 207 207 208 209 210 209 209 207 207 209 209 211 213 215 215 214 214 214 213 213 216 219 222 223 223 222 224 224 222 221 223 226 229 232 235 236 238 239 240 243 245 249 254 258 262
183 188 192 193 193 196 197 197 198 198 200 200 201 203 203 202 204 205 207 207 208 208 208 209 209 207 207 207 207 208 211 214 214 213 213 213 213 214 216 220 223 224 223 223 224 223 222 223 225 228 231 232 234 237 239 240 240 242 245 249 255 258 261
184 187 191 194 194 195 196 195 195 197 199 199 199 200 200 202 204 205 206 207 208 208 208 209 208 206 207 205 204 206 208 211 213 212 212 212 212 212 214 219 223 224 223 224 224 223 225 228 228 230 232 233 236 239 241 243 244 246 248 250 254 256 258
187 190 193 193 193 194 194 191 191 193 194 195 197 199 201 202 203 205 206 207 206 207 208 209 207 205 205 204 205 205 205 208 209 209 209 210 211 211 213 218 222 222 223 224 223 224 228 231 231 232 234 236 239 242 244 247 249 252 256 257 257 256 256
189 194 197 195 194 193 186 182 185 187 191 194 198 202 202 203 205 206 207 206 205 208 210 208 205 203 203 204 205 204 204 206 206 205 206 208 210 211 212 215 219 221 223 224 224 225 229 233 234 235 237 239 243 246 248 250 252 257 262 264 264 261 258
194 195 195 193 187 180 174 176 180 185 191 195 199 202 203 204 206 207 208 207 207 209 209 205 203 203 203 203 203 202 203 203 202 202 203 205 208 209 211 215 218 221 224 225 226 228 230 234 235 236 239 241 244 248 250 252 256 260 264 265 266 265 263
201 195 189 184 177 174 174 177 183 188 193 197 200 202 202 204 206 207 209 209 208 209 206 203 203 202 202 204 202 201 202 202 201 200 200 203 207 209 211 216 218 222 226 228 229 231 233 235 236 237 239 242 246 250 253 255 257 259 261 262 263 264 263
196 187 181 175 168 170 172 177 186 191 194 199 201 202 203 204 206 207 209 209 209 209 205 202 202 202 203 203 201 201 203 201 197 195 197 204 209 210 213 217 220 224 228 230 231 233 233 234 235 237 239 245 251 254 256 256 255 255 256 257 258 260 259
173 175 174 169 169 175 177 182 189 190 195 199 200 202 205 206 208 208 209 210 209 206 203 202 202 203 203 202 202 204 198 179 172 190 204 210 212 214 217 220 223 225 229 232 233 235 233 229 231 236 242 250 254 255 255 253 252 251 250 251 257 259 256
181 187 183 180 182 182 180 183 188 190 196 197 197 201 204 207 209 209 210 210 207 205 204 203 202 204 206 205 201 185 143 135 166 203 216 216 215 217 220 223 225 226 229 232 232 236 236 231 232 238 245 252 254 252 251 251 252 250 247 252 261 261 259
191 194 191 188 185 182 185 189 191 191 191 192 195 199 202 205 206 207 208 208 205 205 204 202 203 205 200 181 143 117 127 155 185 209 219 219 218 219 221 224 227 227 230 232 233 237 237 232 233 239 247 252 252 248 249 252 254 250 247 254 262 263 263
198 195 189 185 181 182 189 190 187 184 186 194 199 200 201 204 205 205 206 206 205 204 203 202 200 187 156 138 145 156 161 172 190 209 220 222 220 220 222 224 227 227 228 231 237 242 240 233 233 240 247 250 248 246 249 252 253 249 247 251 257 259 262
198 189 182 181 183 187 189 186 184 187 193 199 200 201 203 204 202 203 206 207 207 204 201 196 180 159 157 170 179 174 167 177 194 208 220 224 219 219 223 225 226 226 226 230 237 243 240 234 236 242 247 248 246 246 248 252 253 249 246 249 252 254 257
185 182 186 186 185 187 189 189 191 194 197 199 199 203 206 203 201 205 208 208 205 200 192 180 167 165 171 176 174 169 171 184 196 205 218 224 219 220 226 227 226 227 228 230 236 241 240 237 240 245 247 246 244 245 249 253 252 247 246 249 250 251 255
184 188 188 188 191 194 193 189 187 191 197 201 204 207 208 206 207 211 210 205 200 192 181 170 165 166 168 169 170 170 175 186 195 203 214 219 216 219 226 228 228 229 231 232 235 240 241 240 243 246 246 245 244 245 250 253 251 247 246 248 248 250 256
188 187 184 188 193 193 187 176 173 182 191 199 204 206 207 210 212 212 207 200 192 182 171 164 162 164 166 169 172 173 178 188 195 202 211 215 212 215 221 225 228 232 234 235 237 240 242 244 246 246 246 246 245 245 249 254 253 249 248 250 250 252 256
185 183 186 190 190 189 184 177 178 184 189 195 200 202 207 212 211 206 199 191 182 172 167 164 164 165 167 172 176 180 187 193 197 202 210 213 210 211 215 221 228 233 237 239 241 243 245 246 246 246 246 247 246 245 247 254 256 253 252 253 252 253 256
172 174 179 176 175 179 177 178 185 190 191 193 199 205 210 211 207 199 187 177 172 167 165 165 166 168 173 181 185 187 192 196 198 202 207 211 212 213 217 222 229 235 240 242 242 242 244 245 245 246 248 248 247 246 249 255 259 258 257 258 257 256 256
123 136 135 128 132 146 158 170 179 183 185 188 197 208 211 208 200 189 176 170 168 165 165 168 173 177 185 190 189 188 192 194 196 198 201 209 218 219 219 223 231 239 243 242 241 243 244 245 246 247 248 247 247 250 254 259 262 262 262 263 263 260 258
68 73 74 76 89 111 137 153 152 152 164 176 188 201 205 200 192 181 173 171 169 168 170 176 183 189 193 192 187 186 190 191 193 195 199 208 218 218 218 226 235 242 245 244 244 245 245 244 246 248 248 247 248 251 256 260 263 265 264 265 265 265 267
81 89 94 94 100 110 121 130 131 137 157 173 183 190 191 189 185 179 176 174 172 176 183 188 192 194 194 189 185 187 190 191 195 199 200 207 215 216 219 230 238 242 246 246 244 243 243 244 247 249 252 252 251 253 256 259 264 267 267 266 267 271 274
86 87 93 101 105 107 111 118 129 144 161 174 178 179 182 182 181 179 178 177 181 190 195 195 194 192 188 187 189 190 191 194 198 201 201 204 210 214 221 230 238 241 243 242 239 239 242 245 246 249 254 255 255 257 261 263 267 271 272 272 275 278 280
66 68 70 78 90 100 108 111 118 132 146 162 171 178 184 184 181 180 181 185 194 201 201 196 193 189 187 189 189 189 192 196 198 201 204 204 206 213 221 230 238 242 242 239 237 239 241 243 244 247 252 256 258 261 266 270 273 276 279 281 283 284 286
56 60 64 70 78 93 103 102 107 124 139 160 176 187 193 191 185 182 185 193 202 205 201 195 192 188 186 188 188 188 193 196 197 200 204 207 210 216 224 232 241 244 241 237 235 236 238 241 242 245 252 258 263 269 275 281 283 285 286 287 287 286 286
53 50 55 65 73 91 106 110 116 127 143 169 188 196 199 197 189 181 185 197 203 201 196 192 188 183 181 183 185 188 192 196 198 201 206 209 212 218 226 235 243 242 236 232 230 231 234 237 239 244 253 264 274 283 291 295 296 297 295 291 288 284 282
62 59 59 59 61 70 91 110 123 137 156 178 197 203 201 199 193 183 183 192 196 194 190 184 181 180 179 180 183 185 189 193 196 203 207 209 212 220 228 234 236 232 228 226 226 228 232 235 240 249 260 273 284 294 300 302 303 305 303 297 288 284 283
58 59 62 59 61 72 93 115 128 146 164 179 200 206 201 202 203 194 188 188 189 188 184 179 178 179 180 183 185 186 189 192 196 202 207 209 215 226 232 232 230 225 222 221 221 227 236 244 251 262 274 284 291 297 301 305 307 308 311 309 296 287 285
60 62 65 54 47 73 122 143 148 162 175 182 195 200 195 198 205 199 190 185 182 182 181 179 178 180 182 186 189 192 197 201 203 207 212 218 226 231 232 231 229 223 218 218 222 232 245 254 264 276 285 289 294 300 304 307 309 312 317 316 305 296 293
114 113 113 117 131 159 175 178 172 176 181 183 187 187 181 182 190 188 182 179 181 183 181 180 180 181 184 190 195 202 207 210 210 212 217 224 228 225 222 222 222 216 212 219 231 239 248 261 274 283 287 290 298 305 306 304 304 310 316 315 312 308 305
139 130 132 140 151 165 175 178 177 185 198 202 192 184 179 175 174 172 173 178 183 183 180 180 183 184 186 192 200 207 210 211 214 219 220 216 211 208 208 209 210 209 211 222 234 242 255 272 280 284 288 293 299 301 297 293 295 302 307 310 314 317 313
118 114 114 119 123 125 129 151 208 212 213 208 192 184 179 170 162 164 174 181 184 184 182 178 174 174 178 185 196 208 213 211 210 209 205 197 194 201 210 214 217 220 222 229 242 255 268 276 280 286 290 291 291 285 278 279 288 297 304 309 316 324 323
62 62 61 66 71 72 85 187 207 208 202 192 184 182 180 172 167 171 177 174 171 175 172 157 139 130 135 147 163 182 193 193 191 189 189 194 206 215 216 217 223 233 239 247 258 270 280 281 282 286 286 284 281 276 272 279 289 297 307 315 322 327 323
33 30 27 34 44 42 227 202 198 198 191 184 182 179 176 175 175 179 178 168 156 149 142 131 120 109 102 105 119 150 168 179 194 204 207 215 223 224 219 215 217 227 248 270 277 280 283 279 274 274 270 263 263 266 273 286 296 306 319 329 328 312 288